Rockport, TX

9:19 AM CDT on March 28, 2017 (GMT -0500)
Aransas County

Weather History for KRKP - October, 2011

Change the Weather History Date:

Sunday, October 16, 2011

  Actual Average Record
Temperature  
Mean Temperature 77 °F -  
Max Temperature 87 °F 82 °F 90 °F (1991)
Min Temperature 68 °F 65 °F 43 °F (1974)
Cooling Degree Days 12    
Growing Degree Days 27 (Base 50)    
Moisture  
Dew Point 68 °F    
Average Humidity 75    
Maximum Humidity 96    
Minimum Humidity 49    
Precipitation  
Precipitation 0.00 in - - ()
Sea Level Pressure  
Sea Level Pressure 30.02 in    
Wind  
Wind Speed 6 mph (East)    
Max Wind Speed 13 mph    
Max Gust Speed -    
Visibility 10 miles    
Events      
Averages and records for this station are not official NWS values.
T = Trace of Precipitation, MM = Missing Value Source: NWS Daily Summary

Daily Weather History Graph

Daily Weather History Graph

Search for Another Location

Airport or City:

Trip Planner

Search our weather history database for the weather conditions in past years. The results will help you decide how hot, cold, wet, or windy it might be!

Date:

Astronomy

Oct. 16, 2011 Rise Set
Actual Time 7:29 AM CDT 6:58 PM CDT
Civil Twilight 7:05 AM CDT 7:21 PM CDT
Nautical Twilight 6:38 AM CDT 7:49 PM CDT
Astronomical Twilight 6:10 AM CDT 8:16 PM CDT
Moon 10:06 PM CDT (10/16) 11:26 AM CDT (10/16)
Length of Visible Light 12h 16m
Length of Day
11h 28m
Waning Gibbous, 82% of the Moon is Illuminated
Oct 16
Waning Gibbous
Oct 19
Last Quarter
Oct 26
New
Nov 2
First Quarter
Nov 10
Full

Hourly Weather History & Observations

Time (CDT) Temp. Heat Index Dew Point Humidity Pressure Visibility Wind Dir Wind Speed Gust Speed Precip Events Conditions
12:53 AM 75.0 °F - 69.1 °F 82% 30.05 in 10.0 mi East 6.9 mph - N/A   Clear
1:53 AM 75.0 °F - 69.1 °F 82% 30.04 in 10.0 mi East 6.9 mph - N/A   Clear
2:53 AM 73.9 °F - 69.1 °F 85% 30.03 in 10.0 mi East 5.8 mph - N/A   Clear
3:53 AM 71.1 °F - 69.1 °F 93% 30.03 in 10.0 mi NNE 3.5 mph - N/A   Clear
4:53 AM 69.1 °F - 68.0 °F 96% 30.03 in 10.0 mi Calm Calm - N/A   Clear
5:53 AM 69.1 °F - 66.9 °F 93% 30.03 in 10.0 mi Calm Calm - N/A   Clear
6:53 AM 68.0 °F - 66.9 °F 96% 30.04 in 8.0 mi Calm Calm - N/A   Clear
7:53 AM 68.0 °F - 66.9 °F 96% 30.05 in 8.0 mi NNE 3.5 mph - N/A   Clear
8:53 AM 75.0 °F - 71.1 °F 87% 30.06 in 10.0 mi ENE 4.6 mph - N/A   Clear
9:53 AM 80.1 °F 82.9 °F 69.1 °F 69% 30.07 in 10.0 mi ENE 5.8 mph - N/A   Clear
10:53 AM 82.0 °F 85.5 °F 69.1 °F 65% 30.07 in 10.0 mi East 6.9 mph - N/A   Clear
11:53 AM 84.0 °F 86.3 °F 66.0 °F 55% 30.08 in 10.0 mi ESE 5.8 mph - N/A   Clear
12:53 PM 84.9 °F 87.1 °F 66.0 °F 53% 30.06 in 10.0 mi East 5.8 mph - N/A   Clear
2:53 PM 86.0 °F 87.6 °F 64.9 °F 49% 30.00 in 10.0 mi ESE 8.1 mph - N/A   Clear
3:53 PM 84.9 °F 86.1 °F 64.0 °F 49% 29.99 in 10.0 mi SE 10.4 mph - N/A   Clear
4:53 PM 82.9 °F 85.0 °F 66.0 °F 56% 29.97 in 10.0 mi ESE 11.5 mph - N/A   Clear
5:53 PM 81.0 °F 83.3 °F 66.9 °F 62% 29.96 in 10.0 mi ESE 9.2 mph - N/A   Clear
6:53 PM 78.1 °F - 70.0 °F 76% 29.96 in 10.0 mi ESE 12.7 mph - N/A   Clear
7:53 PM 78.1 °F - 70.0 °F 76% 29.96 in 10.0 mi ESE 10.4 mph - N/A   Clear
8:53 PM 78.1 °F - 70.0 °F 76% 29.98 in 10.0 mi ESE 9.2 mph - N/A   Clear
9:53 PM 77.0 °F - 69.1 °F 76% 29.99 in 10.0 mi ESE 10.4 mph - N/A   Clear
10:53 PM 77.0 °F - 70.0 °F 79% 29.99 in 10.0 mi ESE 11.5 mph - N/A   Clear
11:53 PM 75.9 °F - 70.0 °F 82% 29.99 in 10.0 mi ESE 8.1 mph - N/A   Clear